When you browse on this site, cookies collect data to enhance your experience and personalize the content and advertising you see.
Visit our Privacy Policy to learn more. By continuing to use the site, you agree to this use of cookies and data.
  • în România
  • Lista ţărilor
  • Pe 7 zile
  • Temperatura apei
  • Hartă satelitară
  • Meteo pe hartă
  • Widget-uri
  • user-avatar
    Intrare

    Meteo pe oră la Misteliha

    Astăzi, 24 Mai, Vineri

    Timp Temperatura Precipitaţii Vânt Presiune Umiditate
    00:00 +3°C° 0 mm 2 m/s 742 mmHg 76%
    01:00 +2°C° 0 mm 2 m/s 742 mmHg 76%
    02:00 +2°C° 0 mm 2 m/s 743 mmHg 75%
    03:00 +2°C° 0 mm 2 m/s 743 mmHg 71%
    04:00 +3°C° 0 mm 2 m/s 743 mmHg 66%
    05:00 +4°C° 0 mm 2 m/s 744 mmHg 62%
    06:00 +5°C° 0 mm 2 m/s 744 mmHg 56%
    07:00 +7°C° 0 mm 2 m/s 744 mmHg 49%
    08:00 +8°C° 0 mm 2 m/s 744 mmHg 43%
    09:00 +9°C° 0 mm 3 m/s 744 mmHg 41%
    10:00 +11°C° 0 mm 3 m/s 744 mmHg 38%
    11:00 +12°C° 0 mm 3 m/s 744 mmHg 36%
    12:00 +12°C° 0 mm 3 m/s 744 mmHg 36%
    13:00 +13°C° 0 mm 3 m/s 744 mmHg 35%
    14:00 +13°C° 0 mm 3 m/s 743 mmHg 35%
    15:00 +13°C° 0 mm 3 m/s 743 mmHg 37%
    16:00 +13°C° 0 mm 3 m/s 743 mmHg 40%
    17:00 +13°C° 0 mm 3 m/s 743 mmHg 42%
    18:00 +12°C° 0 mm 2 m/s 743 mmHg 51%
    19:00 +10°C° 0 mm 2 m/s 742 mmHg 59%
    20:00 +8°C° 0 mm 2 m/s 742 mmHg 67%
    21:00 +7°C° 0 mm 2 m/s 742 mmHg 69%
    22:00 +7°C° 0 mm 3 m/s 742 mmHg 70%
    23:00 +7°C° 0 mm 3 m/s 742 mmHg 71%

    Mâine, 25 Mai, Sâmbătă

    Timp Temperatura Precipitaţii Vânt Presiune Umiditate
    00:00 +7°C° 0 mm 3 m/s 742 mmHg 71%
    01:00 +7°C° 0 mm 3 m/s 742 mmHg 70%
    02:00 +5°C° 0 mm 3 m/s 741 mmHg 70%
    03:00 +6°C° 0 mm 4 m/s 741 mmHg 70%
    04:00 +7°C° 0 mm 4 m/s 741 mmHg 71%
    05:00 +7°C° 0 mm 4 m/s 740 mmHg 71%
    06:00 +10°C° 0 mm 4 m/s 740 mmHg 70%
    07:00 +11°C° 0 mm 4 m/s 740 mmHg 69%
    08:00 +12°C° 0 mm 4 m/s 739 mmHg 69%
    09:00 +13°C° 0 mm 5 m/s 739 mmHg 68%
    10:00 +14°C° 0 mm 5 m/s 739 mmHg 68%
    11:00 +15°C° 0 mm 5 m/s 738 mmHg 68%
    12:00 +15°C° 0.1 mm 5 m/s 738 mmHg 71%
    13:00 +15°C° 0.1 mm 4 m/s 737 mmHg 74%
    14:00 +15°C° 0.1 mm 4 m/s 737 mmHg 77%
    15:00 +14°C° 0.9 mm 3 m/s 736 mmHg 83%
    16:00 +14°C° 0.9 mm 3 m/s 735 mmHg 89%
    17:00 +15°C° 0.9 mm 2 m/s 735 mmHg 95%
    18:00 +14°C° 0.9 mm 3 m/s 734 mmHg 95%
    19:00 +14°C° 0.9 mm 3 m/s 733 mmHg 95%
    20:00 +14°C° 0.9 mm 4 m/s 733 mmHg 96%
    21:00 +14°C° 1 mm 4 m/s 733 mmHg 96%
    22:00 +14°C° 1 mm 4 m/s 732 mmHg 96%
    23:00 +13°C° 1 mm 3 m/s 732 mmHg 97%

    Poimâine, 26 Mai, Duminică

    Timp Temperatura Precipitaţii Vânt Presiune Umiditate
    00:00 +13°C° 0.1 mm 3 m/s 732 mmHg 97%
    01:00 +13°C° 0.1 mm 3 m/s 732 mmHg 97%
    02:00 +12°C° 0.1 mm 3 m/s 732 mmHg 97%
    03:00 +12°C° 0 mm 3 m/s 732 mmHg 96%
    04:00 +11°C° 0 mm 3 m/s 733 mmHg 95%
    05:00 +11°C° 0 mm 3 m/s 733 mmHg 94%
    06:00 +11°C° 0 mm 3 m/s 733 mmHg 87%
    07:00 +12°C° 0 mm 4 m/s 733 mmHg 80%
    08:00 +13°C° 0 mm 4 m/s 734 mmHg 73%
    09:00 +13°C° 0 mm 4 m/s 734 mmHg 71%
    10:00 +13°C° 0 mm 4 m/s 734 mmHg 70%
    11:00 +13°C° 0 mm 4 m/s 734 mmHg 68%
    12:00 +13°C° 0 mm 4 m/s 734 mmHg 65%
    13:00 +14°C° 0 mm 4 m/s 734 mmHg 62%
    14:00 +14°C° 0 mm 4 m/s 735 mmHg 59%
    15:00 +14°C° 0 mm 3 m/s 735 mmHg 60%
    16:00 +14°C° 0 mm 3 m/s 734 mmHg 62%
    17:00 +14°C° 0 mm 3 m/s 734 mmHg 63%
    18:00 +13°C° 0 mm 2 m/s 734 mmHg 70%
    19:00 +12°C° 0 mm 1 m/s 734 mmHg 77%
    20:00 +9°C° 0 mm 0 m/s 734 mmHg 84%
    21:00 +10°C° 0 mm 1 m/s 734 mmHg 86%
    22:00 +9°C° 0 mm 1 m/s 734 mmHg 88%
    23:00 +8°C° 0 mm 2 m/s 733 mmHg 90%

    27 Mai, Luni

    Timp Temperatura Precipitaţii Vânt Presiune Umiditate
    00:00 +8°C° 0 mm 2 m/s 733 mmHg 89%
    01:00 +8°C° 0 mm 3 m/s 732 mmHg 88%
    02:00 +9°C° 0 mm 3 m/s 732 mmHg 87%
    03:00 +8°C° 0.6 mm 4 m/s 732 mmHg 89%
    04:00 +8°C° 0.6 mm 4 m/s 732 mmHg 91%
    05:00 +9°C° 0.6 mm 5 m/s 732 mmHg 93%
    06:00 +9°C° 0.1 mm 5 m/s 732 mmHg 89%
    07:00 +9°C° 0.1 mm 5 m/s 733 mmHg 84%
    08:00 +9°C° 0.1 mm 5 m/s 733 mmHg 80%
    09:00 +10°C° 0.1 mm 6 m/s 734 mmHg 71%
    10:00 +11°C° 0.1 mm 6 m/s 734 mmHg 62%
    11:00 +13°C° 0.1 mm 6 m/s 735 mmHg 54%
    12:00 +13°C° 0 mm 6 m/s 736 mmHg 57%
    13:00 +11°C° 0 mm 6 m/s 736 mmHg 60%
    14:00 +10°C° 0 mm 5 m/s 737 mmHg 63%
    15:00 +12°C° 0 mm 5 m/s 737 mmHg 62%
    16:00 +12°C° 0 mm 5 m/s 737 mmHg 62%
    17:00 +12°C° 0 mm 5 m/s 737 mmHg 61%
    18:00 +11°C° 0 mm 4 m/s 738 mmHg 67%
    19:00 +10°C° 0 mm 3 m/s 738 mmHg 72%
    20:00 +9°C° 0 mm 3 m/s 738 mmHg 78%
    21:00 +8°C° 0 mm 2 m/s 738 mmHg 81%
    22:00 +8°C° 0 mm 2 m/s 738 mmHg 84%
    23:00 +7°C° 0 mm 2 m/s 739 mmHg 87%

    28 Mai, Marţi

    Timp Temperatura Precipitaţii Vânt Presiune Umiditate
    00:00 +8°C° 0.1 mm 2 m/s 738 mmHg 87%
    01:00 +8°C° 0.1 mm 2 m/s 738 mmHg 87%
    02:00 +9°C° 0.1 mm 3 m/s 738 mmHg 87%
    03:00 +9°C° 3 mm 2 m/s 738 mmHg 91%
    04:00 +10°C° 3 mm 2 m/s 738 mmHg 94%
    05:00 +10°C° 3 mm 2 m/s 738 mmHg 98%
    06:00 +11°C° 0.6 mm 3 m/s 738 mmHg 97%
    07:00 +12°C° 0.6 mm 3 m/s 738 mmHg 97%
    08:00 +13°C° 0.6 mm 3 m/s 739 mmHg 96%
    09:00 +14°C° 0.1 mm 3 m/s 739 mmHg 93%
    10:00 +16°C° 0.1 mm 3 m/s 739 mmHg 89%
    11:00 +17°C° 0.1 mm 3 m/s 739 mmHg 86%
    12:00 +19°C° 0.2 mm 3 m/s 740 mmHg 79%
    13:00 +20°C° 0.2 mm 3 m/s 740 mmHg 73%
    14:00 +21°C° 0.2 mm 2 m/s 740 mmHg 66%
    15:00 +21°C° 0.1 mm 2 m/s 740 mmHg 67%
    16:00 +21°C° 0.1 mm 2 m/s 740 mmHg 69%
    17:00 +21°C° 0.1 mm 2 m/s 740 mmHg 70%
    18:00 +19°C° 0.1 mm 2 m/s 740 mmHg 78%
    19:00 +19°C° 0.1 mm 1 m/s 740 mmHg 85%
    20:00 +16°C° 0.1 mm 1 m/s 741 mmHg 93%
    21:00 +16°C° 0.3 mm 1 m/s 741 mmHg 94%
    22:00 +16°C° 0.3 mm 1 m/s 741 mmHg 96%
    23:00 +16°C° 0.3 mm 1 m/s 741 mmHg 97%

    29 Mai, Miercuri

    Timp Temperatura Precipitaţii Vânt Presiune Umiditate
    00:00 +16°C° 1.7 mm 1 m/s 740 mmHg 97%
    01:00 +16°C° 1.7 mm 1 m/s 740 mmHg 97%
    02:00 +16°C° 1.7 mm 1 m/s 740 mmHg 97%
    03:00 +16°C° 0.1 mm 1 m/s 740 mmHg 97%
    04:00 +16°C° 0.1 mm 1 m/s 740 mmHg 97%
    05:00 +16°C° 0.1 mm 1 m/s 741 mmHg 96%
    06:00 +18°C° 0 mm 1 m/s 741 mmHg 95%
    07:00 +19°C° 0 mm 1 m/s 741 mmHg 93%
    08:00 +20°C° 0 mm 1 m/s 741 mmHg 91%
    09:00 +20°C° 0 mm 1 m/s 741 mmHg 88%
    10:00 +20°C° 0 mm 2 m/s 741 mmHg 85%
    11:00 +21°C° 0 mm 2 m/s 741 mmHg 81%
    12:00 +24°C° 0 mm 3 m/s 740 mmHg 75%
    13:00 +25°C° 0 mm 3 m/s 740 mmHg 69%
    14:00 +26°C° 0 mm 3 m/s 740 mmHg 63%
    15:00 +27°C° 0 mm 4 m/s 740 mmHg 62%
    16:00 +27°C° 0 mm 4 m/s 739 mmHg 60%
    17:00 +27°C° 0 mm 4 m/s 739 mmHg 59%
    18:00 +26°C° 0.1 mm 4 m/s 739 mmHg 65%
    19:00 +23°C° 0.1 mm 4 m/s 738 mmHg 71%
    20:00 +22°C° 0.1 mm 4 m/s 738 mmHg 77%
    21:00 +21°C° 0.2 mm 4 m/s 738 mmHg 79%
    22:00 +21°C° 0.2 mm 4 m/s 738 mmHg 81%
    23:00 +20°C° 0.2 mm 4 m/s 738 mmHg 83%
    Arată mai mult